This is the latest recevied weather packets stored in our database for station/object OH2HCY-3. If no packets are shown the sender has not sent any weather packets the latest 10 day(s).
| Time | Temp. | Humidity | Pressure | Rain* | Wind** | Luminosity | Snow |
|---|---|---|---|---|---|---|---|
| 1777929305 | 5° C | 90% | 1003.2 hPa | - | - | - | - |
| 1777928310 | 5° C | 89% | 1003.1 hPa | - | - | - | - |
| 1777927269 | 5° C | 89% | 1003.3 hPa | - | - | - | - |
| 1777927265 | 5° C | 89% | 1003.3 hPa | - | - | - | - |
| 1777926305 | 5.56° C | 88% | 1003.3 hPa | - | - | - | - |
| 1777925344 | 6.11° C | 88% | 1003.4 hPa | - | - | - | - |
| 1777924345 | 6.11° C | 87% | 1003.5 hPa | - | - | - | - |
| 1777923287 | 6.11° C | 87% | 1003.3 hPa | - | - | - | - |
| 1777922240 | 6.67° C | 86% | 1003.3 hPa | - | - | - | - |
| 1777921114 | 6.67° C | 85% | 1003.5 hPa | - | - | - | - |
| 1777919934 | 6.67° C | 84% | 1003.2 hPa | - | - | - | - |
| 1777918785 | 6.67° C | 84% | 1003.2 hPa | - | - | - | - |
| 1777917765 | 7.22° C | 83% | 1002.9 hPa | - | - | - | - |
| 1777916771 | 7.22° C | 82% | 1002.9 hPa | - | - | - | - |
| 1777915729 | 7.78° C | 82% | 1002.7 hPa | - | - | - | - |
| 1777914595 | 7.78° C | 81% | 1002.8 hPa | - | - | - | - |
| 1777913505 | 7.78° C | 81% | 1002.7 hPa | - | - | - | - |
| 1777912381 | 8.89° C | 78% | 1002.6 hPa | - | - | - | - |
| 1777912349 | 8.89° C | 78% | 1002.6 hPa | - | - | - | - |
| 1777911325 | 9.44° C | 76% | 1002.5 hPa | - | - | - | - |
| 1777910200 | 10° C | 78% | 1002.4 hPa | - | - | - | - |
| 1777909080 | 10° C | 76% | 1002.3 hPa | - | - | - | - |
| 1777907945 | 10° C | 76% | 1002.4 hPa | - | - | - | - |
| 1777906885 | 10° C | 79% | 1002.2 hPa | - | - | - | - |
| 1777905925 | 10° C | 78% | 1002.4 hPa | - | - | - | - |
* Rain since midnight (hover to see other rain measurements)
** Current wind speed in m/s (hover to see current wind gust speed)